TimeCST,TemperatureF,Dew PointF,Humidity,Sea Level PressureIn,VisibilityMPH,Wind Direction,Wind SpeedMPH,Gust SpeedMPH,PrecipitationIn,Events,Conditions,WindDirDegrees,DateUTC
12:52 AM,32.0,21.0,64,30.29,10.0,NNW,9.2,-,N/A,,Clear,330,2012-11-24 06:52:00
1:52 AM,27.0,21.0,78,30.30,10.0,NNW,8.1,-,N/A,,Clear,340,2012-11-24 07:52:00
2:52 AM,28.9,21.0,72,30.30,10.0,NNW,10.4,-,N/A,,Clear,340,2012-11-24 08:52:00
3:52 AM,28.0,19.9,72,30.29,10.0,NNW,10.4,-,N/A,,Clear,340,2012-11-24 09:52:00
4:52 AM,27.0,19.0,72,30.30,10.0,NW,8.1,-,N/A,,Clear,320,2012-11-24 10:52:00
5:52 AM,26.1,19.0,75,30.31,10.0,NNW,8.1,-,N/A,,Clear,330,2012-11-24 11:52:00
6:52 AM,26.1,19.0,75,30.32,10.0,NNW,5.8,-,N/A,,Clear,330,2012-11-24 12:52:00
7:52 AM,28.9,19.0,67,30.34,10.0,NNW,6.9,-,N/A,,Clear,330,2012-11-24 13:52:00
8:52 AM,30.9,19.0,61,30.35,10.0,NNW,10.4,-,N/A,,Clear,340,2012-11-24 14:52:00
9:52 AM,33.1,19.9,59,30.35,10.0,NNW,8.1,-,N/A,,Clear,330,2012-11-24 15:52:00
10:52 AM,35.1,21.0,57,30.33,10.0,NW,5.8,-,N/A,,Clear,320,2012-11-24 16:52:00
11:52 AM,37.0,21.0,52,30.30,10.0,NNW,5.8,-,N/A,,Clear,340,2012-11-24 17:52:00
12:52 PM,39.0,21.0,49,30.27,10.0,NW,8.1,-,N/A,,Clear,310,2012-11-24 18:52:00
1:52 PM,39.0,19.9,46,30.27,10.0,NW,11.5,-,N/A,,Clear,310,2012-11-24 19:52:00
2:52 PM,39.0,19.0,45,30.25,10.0,NNW,6.9,-,N/A,,Clear,330,2012-11-24 20:52:00
3:52 PM,39.0,19.9,46,30.24,10.0,North,4.6,-,N/A,,Clear,10,2012-11-24 21:52:00
4:52 PM,35.1,19.0,52,30.23,10.0,Calm,Calm,-,N/A,,Clear,0,2012-11-24 22:52:00
5:52 PM,34.0,19.9,56,30.23,10.0,Calm,Calm,-,N/A,,Clear,0,2012-11-24 23:52:00
6:52 PM,33.1,21.0,61,30.22,10.0,Calm,Calm,-,N/A,,Clear,0,2012-11-25 00:52:00
7:52 PM,28.9,21.9,75,30.21,10.0,Calm,Calm,-,N/A,,Clear,0,2012-11-25 01:52:00
8:52 PM,27.0,19.9,75,30.19,10.0,SE,3.5,-,N/A,,Clear,130,2012-11-25 02:52:00
9:52 PM,27.0,21.0,78,30.19,10.0,Calm,Calm,-,N/A,,Clear,0,2012-11-25 03:52:00
10:52 PM,27.0,21.0,78,30.18,10.0,Calm,Calm,-,N/A,,Clear,0,2012-11-25 04:52:00
11:52 PM,24.1,21.0,88,30.16,10.0,SE,4.6,-,N/A,,Clear,140,2012-11-25 05:52:00